Torna al catalogo

ORB-12 STRIDER

LostScienzaVLEO
NORAD 57483·PAYLOAD·🇬🇧 United Kingdom

Lanciato Jul 30, 2023 da Satish Dhawan Space Centre

Loading…

Prossimi Passaggi (prossime 24 ore)

TLE

ObsoletoSource: Space-Track

Epoca: Jan 10, 2024, 19:03 UTC

1 57483U 23109C   24010.79410534  .00010603  00000-0  49907-3 0  9994
2 57483   5.0027 110.8465 0013742 325.2209  34.7002 15.15065068 25008

Traccia ORB-12 STRIDER in tempo reale con AllMySat

Download on the App Store